Date String (YYYY-MM-DD hh:mm:ss) UTC,Instrument flags,Ambient pressure (hPa),Sample flow (lpm),Bypass flow (lpm),Sample temperature (°C),Ambient temperature (°C),ASC tube jacket temperature (°C),LED temperature (°C),Box temperature (°C),Sample RH (%),Span deviation,Mass concentration (μg/m³),Mass concentration (μg/m³),Mass concentration (μg/m³)
DateTimeUTC,F1_M11,P_M11,Q1_M11,Q2_M11,T1_M11,T2_M11,T3_M11,T4_M11,T5_M11,U1_M11,ZSPAN_M11,X0_M11,X2_M11,X1_M11
2022-01-25 20:00:00,,0830.0,5.00,0.00,22.7,22.1,00.0,31.7,24.5,12.6,0000.0,0003.37,0003.16,0003.11
2022-01-25 20:01:00,,0830.0,5.00,0.00,22.7,22.1,00.0,31.7,24.5,12.7,0000.0,0003.37,0003.16,0003.11
2022-01-25 20:02:00,,0830.0,4.99,0.00,22.7,22.1,00.0,31.7,24.5,12.8,0000.0,0003.37,0003.16,0003.12
2022-01-25 20:03:00,,0830.0,5.00,0.00,22.7,22.1,00.0,31.6,24.5,12.8,0000.0,0003.41,0003.18,0003.13
2022-01-25 20:04:00,,0830.0,4.99,0.00,22.7,22.1,00.0,31.6,24.5,12.9,0000.0,0003.36,0003.20,0003.15
2022-01-25 20:05:00,,0830.0,5.00,0.00,22.7,22.1,00.0,31.6,24.4,12.6,0000.0,0003.19,0003.21,0003.16
2022-01-25 20:06:00,,0830.0,5.01,0.00,22.7,22.1,00.0,31.6,24.4,12.5,0000.0,0003.28,0003.22,0003.17
2022-01-25 20:07:00,,0830.0,5.00,0.00,22.7,22.1,00.0,31.6,24.4,12.5,0000.0,0003.33,0003.25,0003.19
2022-01-25 20:08:00,,0830.0,5.00,0.00,22.6,22.1,00.0,31.6,24.4,12.3,0000.0,0003.39,0003.28,0003.22
2022-01-25 20:09:00,,0830.0,5.01,0.00,22.6,22.1,00.0,31.6,24.4,12.2,0000.0,0003.68,0003.32,0003.25
2022-01-25 20:10:00,,0830.0,5.00,0.00,22.6,22.0,00.0,31.6,24.4,12.1,0000.0,0003.77,0003.34,0003.27
2022-01-25 20:11:00,,0830.0,5.01,0.00,22.6,22.0,00.0,31.6,24.4,12.1,0000.0,0003.78,0003.35,0003.28
2022-01-25 20:12:00,,0830.0,5.00,0.00,22.6,22.0,00.0,31.6,24.3,12.0,0000.0,0003.83,0003.36,0003.29
2022-01-25 20:13:00,,0830.0,5.00,0.00,22.6,22.0,00.0,31.6,24.4,12.2,0000.0,0003.88,0003.37,0003.29
2022-01-25 20:14:00,,0830.0,5.00,0.00,22.6,22.0,00.0,31.6,24.3,12.1,0000.0,0003.84,0003.36,0003.27
2022-01-25 20:15:00,,0830.0,5.00,0.00,22.6,22.0,00.0,31.6,24.3,12.0,0000.0,0003.81,0003.33,0003.24
2022-01-25 20:16:00,,0830.0,5.00,0.00,22.6,22.0,00.0,31.6,24.3,11.9,0000.0,0003.68,0003.30,0003.22
2022-01-25 20:17:00,,0830.0,5.00,0.00,22.6,21.9,00.0,31.5,24.3,11.9,0000.0,0003.55,0003.25,0003.18
2022-01-25 20:18:00,,0830.0,5.00,0.00,22.5,21.9,00.0,31.5,24.2,11.8,0000.0,0003.46,0003.21,0003.14
2022-01-25 20:19:00,,0829.9,5.00,0.00,22.5,21.9,00.0,31.5,24.2,11.8,0000.0,0003.32,0003.14,0003.06
2022-01-25 20:20:00,,0830.0,4.99,0.00,22.6,22.5,00.0,31.6,24.4,11.7,0000.0,0003.16,0003.08,0002.96
2022-01-25 20:21:00,,0830.0,5.01,0.00,22.7,23.3,00.0,31.6,24.7,11.7,0000.0,0003.12,0003.02,0002.89
2022-01-25 20:22:00,,0830.0,5.00,0.00,22.9,23.6,00.0,31.7,24.9,11.4,0000.0,0003.06,0002.96,0002.82
2022-01-25 20:23:00,,0830.0,4.99,0.00,22.9,23.4,00.0,31.7,24.9,11.1,0000.0,0002.96,0002.87,0002.74
2022-01-25 20:24:00,,0830.0,4.99,0.00,22.9,23.1,00.0,31.7,24.8,11.0,0000.0,0002.85,0002.76,0002.65
2022-01-25 20:25:00,,0830.0,5.00,0.00,22.9,22.9,00.0,31.7,24.7,11.1,0000.0,0002.79,0002.68,0002.57
2022-01-25 20:26:00,,0830.0,5.02,0.00,22.8,22.8,00.0,31.7,24.6,11.0,0000.0,0002.73,0002.62,0002.50
2022-01-25 20:27:00,,0830.0,4.99,0.00,22.8,22.6,00.0,31.7,24.6,11.0,0000.0,0002.67,0002.55,0002.44
2022-01-25 20:28:00,,0829.9,5.01,0.00,22.8,22.5,00.0,31.7,24.6,11.0,0000.0,0003.20,0002.52,0002.40
2022-01-25 20:29:00,,0829.9,5.00,0.00,22.8,22.5,00.0,31.7,24.6,10.9,0000.0,0003.64,0002.47,0002.35
2022-01-25 20:30:00,,0829.9,5.00,0.00,22.8,22.4,00.0,31.7,24.5,10.8,0000.0,0003.60,0002.42,0002.30
2022-01-25 20:31:00,,0829.9,5.00,0.00,22.8,22.3,00.0,31.7,24.5,10.9,0000.0,0003.41,0002.35,0002.26
2022-01-25 20:32:00,,0829.9,4.99,0.00,22.7,22.3,00.0,31.7,24.4,11.0,0000.0,0003.27,0002.28,0002.21
2022-01-25 20:33:00,,0829.9,5.00,0.00,22.7,22.2,00.0,31.7,24.4,11.1,0000.0,0003.25,0002.24,0002.17
2022-01-25 20:34:00,,0829.9,5.00,0.00,22.7,22.1,00.0,31.7,24.4,11.2,0000.0,0003.23,0002.21,0002.15
2022-01-25 20:35:00,,0829.9,5.00,0.00,22.7,22.1,00.0,31.7,24.3,11.1,0000.0,0003.21,0002.19,0002.14
2022-01-25 20:36:00,,0829.9,5.00,0.00,22.6,22.1,00.0,31.7,24.3,11.1,0000.0,0003.18,0002.18,0002.14
2022-01-25 20:37:00,,0829.9,4.99,0.00,22.6,22.0,00.0,31.7,24.3,11.1,0000.0,0003.23,0002.21,0002.14
2022-01-25 20:38:00,,0829.9,5.00,0.00,22.6,22.0,00.0,31.6,24.3,11.2,0000.0,0003.38,0002.24,0002.15
2022-01-25 20:39:00,,0829.9,5.00,0.00,22.6,22.0,00.0,31.6,24.3,11.3,0000.0,0003.37,0002.24,0002.14
2022-01-25 20:40:00,,0830.0,5.00,0.00,22.6,21.9,00.0,31.6,24.2,11.3,0000.0,0002.97,0002.25,0002.15
2022-01-25 20:41:00,,0830.0,5.00,0.00,22.5,21.9,00.0,31.6,24.2,11.5,0000.0,0002.99,0002.28,0002.17
2022-01-25 20:42:00,,0830.0,5.00,0.00,22.5,22.0,00.0,31.6,24.3,11.4,0000.0,0003.02,0002.30,0002.20
2022-01-25 20:43:00,,0830.0,4.99,0.00,22.6,22.6,00.0,31.6,24.5,11.4,0000.0,0003.03,0002.32,0002.22
2022-01-25 20:44:00,,0830.0,5.02,0.00,22.8,23.3,00.0,31.7,24.7,11.2,0000.0,0003.00,0002.32,0002.23
2022-01-25 20:45:00,,0830.0,4.99,0.00,22.8,23.2,00.0,31.7,24.8,11.2,0000.0,0002.99,0002.33,0002.25
2022-01-25 20:46:00,,0830.0,4.99,0.00,22.9,23.1,00.0,31.7,24.8,11.2,0000.0,0003.01,0002.36,0002.28
2022-01-25 20:47:00,,0830.0,5.01,0.00,22.8,22.9,00.0,31.7,24.7,11.3,0000.0,0003.03,0002.38,0002.31
2022-01-25 20:48:00,,0829.9,5.00,0.00,22.8,22.7,00.0,31.7,24.6,11.4,0000.0,0003.00,0002.38,0002.32
2022-01-25 20:49:00,,0830.0,5.00,0.00,22.8,22.6,00.0,31.7,24.6,11.5,0000.0,0003.01,0002.40,0002.34
2022-01-25 20:50:00,,0830.0,4.99,0.00,22.8,22.5,00.0,31.7,24.5,11.5,0000.0,0002.34,0002.40,0002.35
2022-01-25 20:51:00,,0829.9,5.01,0.00,22.8,22.5,00.0,31.7,24.5,11.5,0000.0,0002.45,0002.44,0002.37
2022-01-25 20:52:00,,0830.0,4.99,0.00,22.7,22.4,00.0,31.7,24.5,11.6,0000.0,0002.50,0002.47,0002.38
2022-01-25 20:53:00,,0830.0,5.00,0.00,22.7,22.3,00.0,31.7,24.4,11.6,0000.0,0002.53,0002.48,0002.40
2022-01-25 20:54:00,,0830.0,5.00,0.00,22.7,22.3,00.0,31.7,24.4,11.7,0000.0,0002.55,0002.51,0002.42
2022-01-25 20:55:00,,0830.0,5.01,0.00,22.7,22.2,00.0,31.7,24.4,11.7,0000.0,0002.60,0002.54,0002.44
2022-01-25 20:56:00,,0830.0,5.00,0.00,22.7,22.2,00.0,31.7,24.4,11.8,0000.0,0002.71,0002.59,0002.44
2022-01-25 20:57:00,,0829.9,5.00,0.00,22.7,22.2,00.0,31.7,24.4,11.8,0000.0,0002.73,0002.61,0002.45
2022-01-25 20:58:00,,0830.0,5.00,0.00,22.7,22.2,00.0,31.7,24.4,11.7,0000.0,0002.72,0002.60,0002.45
2022-01-25 20:59:00,,0830.0,5.00,0.00,22.7,22.2,00.0,31.7,24.4,11.8,0000.0,0003.13,0002.61,0002.46
